STARLINK-31464, 59318

Orbit data source: Space-Track

STARLINK-31464, 59318 is a payload satellite owned by SpaceX/Seattle (US) in LEO that was launched on Sun, 24 Mar 2024 UTC via an FALCON 9 launch vehicle from the Air Force Eastern Test Range (AFETR). Payload-class satellites include a variety of spacecraft equipped with specific instruments for various scientific and technological missions. These include communications satellites like Starlink; space stations such as the ISS; scientific satellites like the Hubble; Earth observation satellites from companies like Planet Labs, Umbra, and HawkEye 360; GPS; miniature CubeSats for education and research; and military/defense satellites.

Loading next visibility...
Identifier
59318, 2024-056Y
Orbit
LEO
Country
Flag of USUS
Related business
Manufacturer
SpaceX/Seattle
Mission
Operational Commercial Communications
Bus & Motor
STARLINK V2M, Unknown motor
Mass
730 kg wet, ~700 kg dry
Launch date (UTC)
2024-03-24 (2 years ago)
Launch vehicle
FALCON 9
Launch site
Air Force Eastern Test Range (AFETR)
Object type
Payload
Rocket body
Debris
Shape & HBR
Box + 2 Pan, 17.7 m
Radar Cross Section
33.884 m², Large (>1 m²)

Expand to show TLE details & history
Last TLE update: 3 days ago

TLE from 3 days ago
0 STARLINK-31464
1 59318U 24056Y   26170.60929232  .00000657  00000-0  33390-4 0  9992
2 59318  43.0037  14.9441 0001468 280.1179  79.9507 15.27575005126749
Epoch: 2026-06-19T14:37Z
TLE epoch observation values (Epoch: 2026-06-19T14:37:22.856Z)
Latitude
-0.00002°
Longitude
-112.23697°
Altitude
482.664 km
Speed
7.626 km/s
True Right ascension
00h 59m 46s
True Declination
0° 00' 00"
Sunlit
Object was in daylight at epoch
Visualization orbit readout
Latitude
Unknown
Longitude
Unknown
Altitude
Unknown
Speed
Unknown
Apparent Right ascension
Unknown
Apparent Declination
Unknown
Sunlit
N/A
Visualization observer readout
Local Sidereal Time
21:32:18
Azimuth
Unknown
Elevation
Unknown
Doppler factor
Unknown
Orbital elements
Apogee altitude
486.016 km
Perigee altitude
484.001 km
Semi-major axis
6,863.146 km
Eccentricity
0.00015
Inclination
43.0037°
RAAN
14.9441°
Arg. of periapsis
280.1179°
True anomaly
79.96726°
Mean anomaly
79.9507°
Eccentric anomaly
79.95898°
Mean motion
3.81732 °/min
Orbital period
94.31 mins
BSTAR
0.00003339
Loading maneuver chart data...
Computing Atmospheric mass density...
Loading historical data...
Loading historical data...
Loading historical data...
Loading historical data...
Loading historical data...
Loading historical data...
Loading historical data...

Documentation

Showing up to 5 results
|